TimeCST,TemperatureF,Dew PointF,Humidity,Sea Level PressureIn,VisibilityMPH,Wind Direction,Wind SpeedMPH,Gust SpeedMPH,PrecipitationIn,Events,Conditions,WindDirDegrees,DateUTC
12:53 AM,42.1,35.1,76,30.28,10.0,Calm,Calm,-,N/A,,Overcast,0,2013-01-09 06:53:00
1:53 AM,42.1,36.0,79,30.30,10.0,Calm,Calm,-,N/A,,Overcast,0,2013-01-09 07:53:00
2:53 AM,44.1,37.0,76,30.30,10.0,Calm,Calm,-,N/A,,Overcast,0,2013-01-09 08:53:00
3:53 AM,45.0,37.9,76,30.30,10.0,Calm,Calm,-,N/A,,Overcast,0,2013-01-09 09:53:00
4:53 AM,45.0,39.0,80,30.30,10.0,Calm,Calm,-,0.00,,Overcast,0,2013-01-09 10:53:00
5:48 AM,46.4,42.8,87,30.31,10.0,Calm,Calm,-,0.00,Rain,Light Rain,0,2013-01-09 11:48:00
5:53 AM,46.0,42.1,86,30.32,10.0,Calm,Calm,-,0.00,Rain,Light Rain,0,2013-01-09 11:53:00
6:29 AM,46.4,42.8,87,30.33,7.0,Calm,Calm,-,0.03,Rain,Light Rain,0,2013-01-09 12:29:00
6:53 AM,46.9,44.1,90,30.35,6.0,Calm,Calm,-,0.04,Rain,Light Rain,0,2013-01-09 12:53:00
7:53 AM,48.9,46.9,93,30.40,2.5,Calm,Calm,-,0.03,Rain,Light Rain,0,2013-01-09 13:53:00
8:05 AM,48.2,48.2,100,30.39,1.2,Calm,Calm,-,0.03,Rain,Rain,0,2013-01-09 14:05:00
8:14 AM,48.2,44.6,87,30.40,1.5,NNW,4.6,-,0.04,Rain,Light Rain,330,2013-01-09 14:14:00
8:23 AM,48.2,44.6,87,30.41,3.0,NNW,4.6,-,0.04,Rain,Light Rain,340,2013-01-09 14:23:00
8:53 AM,48.0,45.0,89,30.43,5.0,Calm,Calm,-,0.04,,Overcast,0,2013-01-09 14:53:00
9:34 AM,48.2,46.4,93,30.44,5.0,Calm,Calm,-,0.00,,Overcast,0,2013-01-09 15:34:00
9:53 AM,50.0,46.9,89,30.45,4.0,Calm,Calm,-,0.01,Rain,Light Rain,0,2013-01-09 15:53:00
10:53 AM,51.1,46.9,86,30.43,4.0,Calm,Calm,-,0.00,,Mostly Cloudy,0,2013-01-09 16:53:00
12:05 PM,51.8,46.4,82,30.39,9.0,Calm,Calm,-,N/A,,Scattered Clouds,0,2013-01-09 18:05:00
12:12 PM,51.8,46.4,82,30.39,10.0,Calm,Calm,-,N/A,,Mostly Cloudy,0,2013-01-09 18:12:00
12:31 PM,51.8,46.4,82,30.37,10.0,SE,6.9,-,N/A,,Scattered Clouds,140,2013-01-09 18:31:00
12:53 PM,53.1,46.9,80,30.38,10.0,Calm,Calm,-,N/A,,Clear,0,2013-01-09 18:53:00
1:53 PM,55.0,46.9,74,30.38,10.0,ENE,4.6,-,N/A,,Overcast,60,2013-01-09 19:53:00
2:53 PM,55.0,48.0,77,30.40,10.0,NNE,3.5,-,N/A,,Partly Cloudy,20,2013-01-09 20:53:00
3:53 PM,55.0,46.9,74,30.40,10.0,NE,4.6,-,N/A,,Clear,40,2013-01-09 21:53:00
4:53 PM,51.1,46.9,86,30.42,10.0,NE,3.5,-,N/A,,Mostly Cloudy,40,2013-01-09 22:53:00
5:53 PM,48.9,46.9,93,30.43,10.0,Calm,Calm,-,N/A,,Clear,0,2013-01-09 23:53:00
6:34 PM,46.4,44.6,93,30.44,1.5,Calm,Calm,-,N/A,,Clear,0,2013-01-10 00:34:00
6:37 PM,46.4,44.6,93,30.44,0.8,Calm,Calm,-,N/A,,Clear,0,2013-01-10 00:37:00
6:49 PM,46.4,44.6,93,30.44,2.0,Calm,Calm,-,N/A,,Clear,0,2013-01-10 00:49:00
6:53 PM,46.9,45.0,93,30.45,4.0,NNE,3.5,-,N/A,,Clear,20,2013-01-10 00:53:00
7:53 PM,46.9,44.1,90,30.46,5.0,Calm,Calm,-,N/A,,Clear,0,2013-01-10 01:53:00
8:44 PM,44.6,44.6,100,30.46,1.5,Calm,Calm,-,N/A,,Clear,0,2013-01-10 02:44:00
8:47 PM,44.6,44.6,100,30.46,0.8,Calm,Calm,-,N/A,,Clear,0,2013-01-10 02:47:00
8:53 PM,46.0,44.1,93,30.46,0.8,NE,3.5,-,N/A,,Clear,50,2013-01-10 02:53:00
8:56 PM,46.4,44.6,93,30.45,1.5,NE,3.5,-,N/A,,Clear,50,2013-01-10 02:56:00
8:59 PM,46.4,44.6,93,30.45,3.0,NE,4.6,-,N/A,,Clear,50,2013-01-10 02:59:00
9:53 PM,46.9,45.0,93,30.48,7.0,Calm,Calm,-,N/A,,Mostly Cloudy,0,2013-01-10 03:53:00
10:53 PM,48.9,46.0,90,30.45,7.0,NE,5.8,-,N/A,,Overcast,50,2013-01-10 04:53:00
11:53 PM,50.0,46.0,86,30.45,9.0,ENE,6.9,-,N/A,,Overcast,60,2013-01-10 05:53:00